COSMOS 2251 DEB, 35982

Orbit data source: Space-Track

COSMOS 2251 DEB, 35982 is space debris in LEO originally from a launch on Wed, 16 Jun 1993 UTC launched from the Plesetsk Missile And Space Complex (PKMTR). The debris from Iridium 33, an American commercial communications satellite, has been tracked extensively since its accidental collision with the defunct Russian satellite Cosmos 2251 in 2009. This event, occurring at high speed in low Earth orbit (LEO), generated thousands of pieces of space debris, significantly increasing the risk of further collisions. The Iridium 33 debris cloud has impacted space traffic management and orbital debris mitigation strategies, making it a subject of ongoing study in space situational awareness.

Loading next visibility...
Identifier
35982, 1993-036AVY
Orbit
LEO
Country
Flag of CISCIS
Related business
Manufacturer
Unknown
Mission
Spacecraft
Bus & Motor
Unknown
Mass
Unknown
Launch date (UTC)
1993-06-16 (33 years ago)
Launch vehicle
Unknown
Launch site
Plesetsk Missile And Space Complex (PKMTR)
Object type
Payload
Rocket body
Debris
Shape & HBR
Unknown shape, 0.1 m
Radar Cross Section
Small (<0.1 m²)

Expand to show TLE details & history
Last TLE update: 1 day ago

TLE from 1 day ago
0 COSMOS 2251 DEB
1 35982U 93036AVY 26119.31255767  .00002557  00000-0  48358-3 0  9993
2 35982  74.0552  83.3721 0063409 116.5599 244.2087 14.63631524881788
Epoch: 2026-04-29T07:30Z
TLE epoch observation values (Epoch: 2026-04-29T07:30:04.982Z)
Latitude
-0.00005°
Longitude
113.57601°
Altitude
703.828 km
Speed
7.494 km/s
True Right ascension
05h 33m 29s
True Declination
0° 00' 00"
Sunlit
Object was in daylight at epoch
Visualization orbit readout
Latitude
Unknown
Longitude
Unknown
Altitude
Unknown
Speed
Unknown
Apparent Right ascension
Unknown
Apparent Declination
Unknown
Sunlit
N/A
Visualization observer readout
Local Sidereal Time
22:08:24
Azimuth
Unknown
Elevation
Unknown
Doppler factor
Unknown
Orbital elements
Apogee altitude
723.813 km
Perigee altitude
634.315 km
Semi-major axis
7,057.201 km
Eccentricity
0.00634
Inclination
74.0552°
RAAN
83.3721°
Arg. of periapsis
116.5599°
True anomaly
243.55673°
Mean anomaly
244.2087°
Eccentric anomaly
243.88249°
Mean motion
3.66096 °/min
Orbital period
98.33 mins
BSTAR
0.00048358
Loading maneuver chart data...
Computing Atmospheric mass density...

Documentation

Showing up to 5 results
|